This is the latest recevied weather packets stored in our database for station/object KK4WXG. If no packets are shown the sender has not sent any weather packets the latest 10 day(s).
| Time | Temp. | Humidity | Pressure | Rain* | Wind** | Luminosity | Snow |
|---|---|---|---|---|---|---|---|
| 1777280685 | 3.33° C | 97% | 1022.3 hPa | 0 mm | - | 0 W/m² | - |
| 1777280381 | 3.33° C | 97% | 1022.2 hPa | 0 mm | - | 0 W/m² | - |
| 1777280079 | 3.33° C | 97% | 1022.4 hPa | 0 mm | - | 0 W/m² | - |
| 1777279775 | 3.33° C | 97% | 1022.2 hPa | 0 mm | - | 0 W/m² | - |
| 1777279170 | 3.89° C | 97% | 1022.3 hPa | 0 mm | - | 0 W/m² | - |
| 1777278867 | 3.89° C | 97% | 1022.3 hPa | 0 mm | - | 0 W/m² | - |
| 1777278562 | 4.44° C | 97% | 1022.4 hPa | 0 mm | - | 0 W/m² | - |
| 1777278259 | 5° C | 97% | 1022.2 hPa | 0 mm | - | 0 W/m² | - |
| 1777277956 | 5° C | 97% | 1022.6 hPa | 0 mm | - | 0 W/m² | - |
| 1777277653 | 5° C | 97% | 1022.4 hPa | 0 mm | - | 0 W/m² | - |
| 1777277348 | 5° C | 97% | 1022.5 hPa | 0 mm | - | 0 W/m² | - |
| 1777277043 | 5° C | 97% | 1022.4 hPa | 0 mm | - | 0 W/m² | - |
| 1777276739 | 5° C | 97% | 1022.5 hPa | 0 mm | - | 0 W/m² | - |
| 1777276436 | 4.44° C | 97% | 1022.4 hPa | 0 mm | - | 0 W/m² | - |
| 1777276133 | 4.44° C | 97% | 1022.2 hPa | 0 mm | - | 0 W/m² | - |
| 1777275830 | 4.44° C | 97% | 1022.3 hPa | 0 mm | - | 0 W/m² | - |
| 1777275527 | 4.44° C | 96% | 1022.3 hPa | 0 mm | - | 0 W/m² | - |
| 1777275224 | 5° C | 96% | 1022.2 hPa | 0 mm | - | 0 W/m² | - |
| 1777274919 | 5.56° C | 96% | 1022.4 hPa | 0 mm | - | 0 W/m² | - |
| 1777274618 | 5.56° C | 97% | 1022.3 hPa | 0 mm | - | 0 W/m² | - |
| 1777274313 | 6.11° C | 97% | 1022.5 hPa | 0 mm | - | 0 W/m² | - |
| 1777274007 | 6.11° C | 97% | 1022.4 hPa | 0 mm | - | 0 W/m² | - |
| 1777273705 | 6.11° C | 97% | 1022.5 hPa | 0 mm | - | 0 W/m² | - |
| 1777273403 | 6.11° C | 97% | 1022.4 hPa | 0 mm | - | 0 W/m² | - |
| 1777273101 | 6.11° C | 97% | 1022.3 hPa | 0 mm | - | 0 W/m² | - |
* Rain latest hour (hover to see other rain measurements)
** Current wind speed in m/s (hover to see current wind gust speed)